THOR ABLESTAR DEB, 336

Orbit data source: Space-Track

THOR ABLESTAR DEB, 336 is space debris in LEO originally from a launch on Thu, 29 Jun 1961 UTC launched from the Air Force Eastern Test Range (AFETR). Debris objects in space refer to the collection of defunct objects orbiting the Earth. Examples of debris include non-operational satellites, rocket bodies, and fragments generated from explosions, collisions, or faulty payload assembly.

Loading next visibility...
Identifier
336, 1961-015DN
Orbit
LEO
Country
Flag of USUS
Related business
Manufacturer
Unknown
Mission
Spacecraft
Bus & Motor
Unknown
Mass
Unknown
Launch date (UTC)
1961-06-29 (65 years ago)
Launch vehicle
Unknown
Launch site
Air Force Eastern Test Range (AFETR)
Object type
Payload
Rocket body
Debris
Shape & HBR
Unknown shape, 0.1 m
Radar Cross Section
Medium (>0.1 m² and <1 m²)

Expand to show TLE details & history
Last TLE update: 23 hours ago

TLE from 23 hours ago
0 THOR ABLESTAR DEB
1   336U 61015DN  26226.97169168  .00000007  00000-0  87613-4 0  9996
2   336  67.0296  57.0014 0071956  94.6862  67.0507 13.69231536247247
Epoch: 2026-08-14T23:19Z
TLE epoch observation values (Epoch: 2026-08-14T23:19:14.161Z)
Latitude
16.07019°
Longitude
-83.17376°
Altitude
983.361 km
Speed
7.372 km/s
True Right ascension
15h 20m 05s
True Declination
15° 58' 54"
Sunlit
Object was in daylight at epoch
Visualization orbit readout
Latitude
Unknown
Longitude
Unknown
Altitude
Unknown
Speed
Unknown
Apparent Right ascension
Unknown
Apparent Declination
Unknown
Sunlit
N/A
Visualization observer readout
Local Sidereal Time
12:42:44
Azimuth
Unknown
Elevation
Unknown
Doppler factor
Unknown
Orbital elements
Apogee altitude
1,053.811 km
Perigee altitude
947.62 km
Semi-major axis
7,378.852 km
Eccentricity
0.0072
Inclination
67.0296°
RAAN
57.0014°
Arg. of periapsis
94.6862°
True anomaly
67.81264°
Mean anomaly
67.0507°
Eccentric anomaly
67.43141°
Mean motion
3.42421 °/min
Orbital period
105.13 mins
BSTAR
0.000087613
Loading maneuver chart data...
Computing Atmospheric mass density...

Documentation

Showing up to 5 results
|